Boise Air Terminal,Gowen field Boise US
ICAO: KBOI
IATA: BOI
Category: Large
Scheduled Services: Yes

Elevation: 2871 ft
TransAlt. 18000 ft.

Airport Communications:
APP/DEP:119.6
ATIS:123.9
CLNC DEL:125.9
SALT LAKE CITY CNTR:128.05
GND:121.7
ANG OPS:29.87
ARNG OPS:41.5
RDO:122.2
TWR:118.1
UNICOM:122.95

KBOI Zoom In..

If Map Doesn't Load, Click Here

Runways:

(A) RW 10L length 10000 ft width 150 ft
---- / hdg 100

(B) RW 10R length 9763 ft width 150 ft
ILS 111.10 / hdg 100

(C) RW 28L length 9763 ft width 150 ft
---- / hdg 280

(D) RW 28R length 10000 ft width 150 ft
ILS 110.15 / hdg 280

Location; KBOI
Day. 21 / Time. 14.53 Zulu
* Altimeter: 30.15
* Temperature: 13° c. 55.4°f.
* Wind from: VRB° Speed 03 kn.
Dewpoint: -04° c.
Visibility: 10 Statute Miles.
Clouds: Clear (automated report).

KBOI 211453Z VRB03KT 10SM CLR 13/M04 A3015 RMK AO2 SLP198 T01281039 53009


Wind From VRB°
Speed 03 kn.

 
 
jpsmedia.com for Web Design worldairports.se 2018   terms of use